Other Public Products
Issued by NWS Grand Forks, ND

Home | Current Version | Previous Version | Graphics & Text | Print | Product List | Glossary On
Versions: 1 2 3 4 5 6 7 8 9 10 11 12 13 14 15 16 17 18 19 20 21 22 23 24 25 26 27 28 29 30 31 32 33 34 35 36 37 38 39 40 41 42 43 44 45 46 47 48 49 50
000
FPUS83 KFGF 211710
OPUFGF
PRAIRIE TO PINES WEATHER ROUNDUP
NATIONAL WEATHER SERVICE EASTERN NORTH DAKOTA/GRAND FORKS ND
1200 PM CDT SUN SEP 21 2014

 **SATELLITE DATA USED TO AUGMENT SKY COVER AT AUTOMATED STATIONS**
 *****  WEATHER ACROSS EASTERN NORTH DAKOTA  *****

CITY           SKY/WX    TMP DP  RH WIND       PRES   REMARKS
GRAND FORKS    PTSUNNY   59  52  77 N13       30.23S
GRAND FORKS AF MOSUNNY   61  53  74 N9        30.24R
GRAND CITY NWS   N/A     59 N/A N/A N2          N/A
BUXTON         NOT AVBL
DEVILS LAKE    MOSUNNY   61  46  59 NW10      30.23S
FARGO          CLOUDY    60  52  74 N7        30.23R
WAHPETON ARPT  PTSUNNY   59  48  67 NW10G18   30.23S
$$

 *****  WEATHER ACROSS CENTRAL AND WESTERN NORTH DAKOTA  *****

CITY           SKY/WX    TMP DP  RH WIND       PRES   REMARKS
JAMESTOWN      SUNNY     62  51  67 NW8       30.26R
BISMARCK       SUNNY     66  47  50 VRB3      30.30S
MINOT          SUNNY     64  43  46 W5        30.26S
MINOT AFB      SUNNY     64  46  51 NW6       30.26S
GARRISON         N/A     65  45  48 VRB3      30.28S
WILLISTON      SUNNY     62  42  47 S7        30.29F
DICKINSON      SUNNY     66  39  37 NW8       30.31R
HETTINGER      SUNNY     65  38  36 W5        30.33S
$$

 *****  OTHER OBSERVATIONS NORTHEAST NORTH DAKOTA  *****

CITY           SKY/WX    TMP DP  RH WIND       PRES   REMARKS
WALHALLA         N/A     59  55  88 N7        30.23S
LANGDON        FAIR      63  50  63 N9        30.23S
CAVALIER       CLOUDY    55  52  88 NW7       30.23S
GRAFTON        CLOUDY    55  52  88 N9        30.23S
CANDO          FAIR      63  48  59 NW8       30.25S
FORT TOTTEN      N/A     65  53  66 N3        29.95
ROLLA          FAIR      59  48  67 NW8       30.26S
RUGBY          FAIR      63  48  59 NW8       30.26R
 ***** THE ABOVE OBSERVATIONS ARE NON NWS ARE NOT QUALITY
        CONTROLLED AND MAY MIS-REPORT RAIN FOR SNOW...
$$

 *****  OTHER OBSERVATIONS SOUTHEAST NORTH DAKOTA *****

CITY           SKY/WX    TMP DP  RH WIND       PRES   REMARKS
COOPERSTOWN    NOT AVBL
VALLEY CITY    FAIR      61  52  72 N12       30.25S
OAKES            N/A     63  50  63 NW13      30.26R
GWINNER        SUNNY     63  48  59 N14       30.26R
SHEYENNE NWR     N/A     61  50  66 N8        29.95S
BUFFALO        NOT AVBL
WYNDMERE         N/A     63  52  67 N7          N/A
 ***** THE ABOVE OBSERVATIONS ARE NON NWS ARE NOT QUALITY
       CONTROLLED AND MAY MIS-REPORT RAIN FOR SNOW...
$$

  *****  WEATHER ACROSS NORTHERN MINNESOTA  *****

CITY           SKY/WX    TMP DP  RH WIND       PRES   REMARKS
FLAG ISLAND    SUNNY     54  48  82 NW5       30.17R
WARROAD        MOSUNNY   59  52  77 N6        30.19S
ROSEAU         CLOUDY    57  52  82 NW5       30.20R
HALLOCK        CLOUDY    57  54  88 NW7       30.22S
THF RVR FALLS  CLOUDY    55  50  82 NW9       30.22R
HALSTAD          N/A     57  50  78 N12         N/A
FOSSTON        CLOUDY    54  50  87 N8        30.22R
BAUDETTE       MOSUNNY   58  48  69 N9        30.18R
WASKISH        MOSUNNY   59  50  72 CALM      30.18S
CROOKSTON      CLOUDY    54  52  94 NW8       30.25R
$$
  *****  WEATHER ACROSS CENTRAL AND WEST MINNESOTA  *****

CITY           SKY/WX    TMP DP  RH WIND       PRES   REMARKS
BEMIDJI        PTSUNNY   58  47  67 NW9G16    30.18R
PARK RAPIDS    MOSUNNY   59  47  64 N10G16    30.18R
WADENA         CLOUDY    57  48  72 N8G17     30.19R
DETROIT LAKES  CLOUDY    54  50  87 N14       30.22R
MOORHEAD       CLOUDY    55  55 100 N7        30.24R
FERGUS FALLS   PTSUNNY   57  48  72 NW13G18   30.23R
ELBOW LAKE     PTSUNNY   57  50  76 N12       30.21S
MORRIS MN      SUNNY     59  52  77 NW15      30.21S
STAPLES        PTSUNNY   59  46  63 N12G17    30.18R
WHEATON        MOSUNNY   59  50  72 NW10      30.25R
$$
  *****  WEATHER ELSEWHERE ACROSS MINNESOTA  *****

CITY           SKY/WX    TMP DP  RH WIND       PRES   REMARKS
DULUTH         MOSUNNY   58  40  51 N15       30.10R
INTRNTL FALLS  SUNNY     57  44  62 N7        30.16R
ELY            SUNNY     52  37  58 NE7       30.11R
CLOQUET        MOSUNNY   57  45  62 NW14G20   30.12R
BRAINERD       CLOUDY    58  46  64 N14       30.17R
HIBBING        MOSUNNY   59  43  55 N10       30.13R
ALEXANDRIA     CLOUDY    57  50  77 N13       30.22R
SAINT CLOUD    MOSUNNY   64  48  56 N9G17     30.16R
MINNEAPOLIS    PTSUNNY   60  47  61 N15       30.14R
$$

  *****  WEATHER ACROSS SOUTH DAKOTA  *****

CITY           SKY/WX    TMP DP  RH WIND       PRES   REMARKS
SIOUX FALLS    MOSUNNY   67  46  47 N13       30.24R
BROOKINGS      NOT AVBL
WATERTOWN      SUNNY     63  46  54 N17       30.24R
HURON          SUNNY     66  47  50 N12       30.27S
SISSETON         N/A     64  51  62 N12G21    30.23R
ABERDEEN       MOSUNNY   65  49  56 N10       30.27S
MITCHELL       SUNNY     67  47  48 N10       30.28S
PIERRE         SUNNY     66  45  46 W7        30.31R
MOBRIDGE       SUNNY     65  46  50 NW6       30.28S
RAPID CITY     SUNNY     67  37  33 SE7       30.36S
$$

  *****  SOME WEATHER IN NEARBY STATES *****

CITY           SKY/WX    TMP DP  RH WIND       PRES   REMARKS
GLASGOW MT     SUNNY     62  43  49 S6        30.28F
GREAT FALLS MT SUNNY     63  44  50 SE5       30.22F
CHEYENNE WY    MOSUNNY   62  37  39 S17G24    30.41F
SCOTTSBLUFF NE CLOUDY    65  39  38 SE9       30.39F
OMAHA NE       MOSUNNY   68  48  48 NW20      30.22S
DES MOINES IA  MOSUNNY   68  47  46 N20G26    30.14R
DAVENPORT IA   CLOUDY    61  47  59 NW17G28   30.04R
CHICAGO IL     LGT RAIN  61  50  67 NW15G26   29.91R
EAU CLAIRE WI  MOSUNNY   61  45  55 NW10G20   30.06R
LA CROSSE WI   PTSUNNY   63  49  60 NW18      30.04R
$$

  *****  SOME NATIONAL WEATHER *****

CITY           SKY/WX    TMP DP  RH WIND       PRES   REMARKS
LA GUARDIA NY  CLOUDY    73  67  81 NE6       29.78F
RALEIGH NC     MOSUNNY   81  59  47 W8        29.87F
ATLANTA GA     MOSUNNY   83  62  49 W12       30.05F
NEW ORLEANS LA MOSUNNY   85  66  53 NE12      30.04S
OKLAHOMA CITY  MOSUNNY   83  68  60 NE13      30.14S
ALBUQUERQUE NM PTSUNNY   76  53  44 SE20      30.32S
SALT LAKE CITY CLOUDY    69  51  52 S13       30.16R
LOS ANGELES CA CLOUDY    70  60  70 CALM      30.01R
BOISE ID       MOSUNNY   76  42  29 S6        30.04F
SEATTLE WA     MOSUNNY   65  56  72 S5        29.90R
$$

*** WEATHER ACROSS MANITOBA...SASKATCHEWAN AND ONTARIO ***
                ***ONTARIO***

CITY           SKY/WX    TMP DP  RH WIND       PRES   REMARKS
GERALDTON      CLOUDY    41  37  87 N9        30.02R
THUNDER BAY    MOSUNNY   54  39  58 NW7       30.06S
SIOUX LOOKOUT  NOT AVBL
TORONTO        MOSUNNY   75  59  57 W22G31    29.55S
BIG TROUT LK   CLOUDY    43  34  70 N9        30.08F
PICKLE LAKE    MOSUNNY   46  36  66 VRB3      30.10S
DRYDEN         PTSUNNY   54  41  62 N7        30.14S
KENORA         PTSUNNY   55  48  76 W6        30.17S
$$
                *** MANITOBA***

CITY           SKY/WX    TMP DP  RH WIND       PRES   REMARKS
BRANDON        MOSUNNY   63  48  59 NW7       30.23F
DAUPHIN        SUNNY     63  48  59 W13       30.19S
ISLAND LAKE    MOSUNNY   54  43  66 CALM      30.08F
PILOT MOUND    NOT AVBL
THE PAS        MOSUNNY   61  48  63 SW12      30.07F
THOMPSON       CLOUDY    48  48 100 SW9       30.00F
WINNIPEG       PTSUNNY   59  52  77 NW5       30.21S
LYNN LAKE      SUNNY     59  46  63 SW13      29.90F
CHURCHILL      CLOUDY    39  37  93 S8        29.86F
GILLAM         PTSUNNY   50  41  71 SW12G20   29.98F
$$
                ***SASKATCHEWAN***

CITY           SKY/WX    TMP DP  RH WIND       PRES   REMARKS
ESTEVAN        SUNNY     63  46  55 W6        30.27F
KINDERSLEY     SUNNY     66  45  45 SW14      30.17F
LLOYDMINSTER   SUNNY     68  45  42 SW9       30.09S
PRINCE ALBERT  MOSUNNY   64  45  48 SW10      30.09F
REGINA         NOT AVBL



USA.gov is the U.S. government's official web portal to all federal, state and local government web resources and services.